Location: Koussan�
(15.2012°N, 12.5548°W)
Time: 18:18:44
(UTC+00:00)

X-37B - Pass Details

Date: 20 October 2020
Orbit: 384 x 389 km, 45.0° (Epoch: 12 November)

Event Time Altitude Azimuth Distance (km) Brightness Sun altitude
Rises 19:16:58 0° 321° (NW) 2,255 4.9 -12.8°
Reaches altitude 10° 19:19:04 10° 326° (NW) 1,401 3.8 -13.3°
Maximum altitude 19:22:09 54° 44° (NE) 472 0.7 -14.1°
Enters shadow 19:23:33 28° 110° (ESE) 758 1.5 -14.4°
